Hourly Data Report for July 28, 2021

NORTH CAPE
PRINCE EDWARD ISLAND
Current Station Operator: ECCC - MSC

47°03'29.000" N
63°59'55.000" W
7.60 m
8300516
71987
WNE

Download Data

Hourly Data (July 2021)
Hourly Data Report for July 28, 2021
TIME
LST
Temp Definition
°C
Dew Point Definition
°C
Rel Hum Definition
%
Precip. Amount Definition
mm

Wind Dir Definition
10's deg

Wind Spd Definition
km/h
Visibility Definition
km
Stn Press Definition
kPa
Hmdx Definition


Wind Chill Definition


Weather Definition


00:00 18.8 14.0 73 0.0 30 23   100.92     LegendNANA
01:00 18.5 14.0 75 0.0 30 19   100.93     LegendNANA
02:00 18.0 14.5 80 0.0 29 19   100.94     LegendNANA
03:00 17.7 13.7 77 0.0 29 21   100.95     LegendNANA
04:00 17.3 14.0 81 0.0 30 24   100.96     LegendNANA
05:00 16.9 13.9 82 0.0 30 22   100.97     LegendNANA
06:00 16.7 14.0 84 0.0 29 23   101.01     LegendNANA
07:00 17.0 14.4 85 0.0 29 24   101.04     LegendNANA
08:00 17.3 14.3 82 0.0 30 23   101.06     LegendNANA
09:00 17.4 13.2 76 0.0 31 21   101.08     LegendNANA
10:00 17.6 12.7 73 0.0 30 18   101.11     LegendNANA
11:00 17.9 13.5 75 0.0 31 19   101.10     LegendNANA
12:00 18.2 12.5 69 0.0 30 23   101.10     LegendNANA
13:00 19.0 13.0 68 0.0 29 15   101.09     LegendNANA
14:00 19.1 13.1 69 0.0 28 10   101.08     LegendNANA
15:00 19.9 13.3 66 0.0 27 9   101.04     LegendNANA
16:00 20.1 12.8 63 0.0 24 7   101.03     LegendNANA
17:00 19.8 11.8 60 0.0 25 14   101.03     LegendNANA
18:00 19.6 12.1 62 0.0 25 18   101.04     LegendNANA
19:00 19.3 11.2 60 0.0 25 16   101.05     LegendNANA
20:00 19.3 12.0 63 0.0 28 21   101.07     LegendNANA
21:00 19.2 10.8 58 0.0 29 24   101.12     LegendNANA
22:00 18.9 10.2 57 0.0 30 33   101.11     LegendNANA
23:00 18.6 10.6 60 0.0 30 28   101.08     LegendNANA

Notes on Data Quality.

Legend

  • E = Estimated
  • M = Missing
  • NA = Not Available*
  • [empty] = Indicates an unobserved value
Date modified: